Weather History for New Iberia, LA

Change the Weather History Date:

Wednesday, January 9, 2013

  Actual Average Record
Temperature  
Mean Temperature 68 °F 53 °F  
Max Temperature 73 °F 63 °F 79 °F (1957)
Min Temperature 62 °F 43 °F 20 °F (1979)
Degree Days  
Heating Degree Days 0 13  
Month to date heating degree days 107 117  
Since 1 July heating degree days 542 664  
Cooling Degree Days 3 1  
Month to date cooling degree days 3 9  
Year to date cooling degree days 3 9  
Growing Degree Days 16 (Base 50)    
Moisture  
Dew Point 65 °F    
Average Humidity 90    
Maximum Humidity 93    
Minimum Humidity 87    
Precipitation  
Precipitation 0.55 in 0.17 in 2.72 in (2012)
Month to date precipitation 5.78 1.64  
Year to date precipitation 5.78 1.64  
Sea Level Pressure  
Sea Level Pressure 30.08 in    
Wind  
Wind Speed 11 mph (East)    
Max Wind Speed 20 mph    
Max Gust Speed 25 mph    
Visibility 6 miles    
Events Rain , Thunderstorm    
T = Trace of Precipitation, MM = Missing Value Source: NWS Daily Summary

Daily Weather History Graph

Daily Weather History Graph

Search for Another Location

Airport:

Trip Planner

Search our weather history database for the weather conditions in past years. The results will help you decide how hot, cold, wet, or windy it might be!

Date:

Astronomy

Jan. 09, 2013 Rise Set
Actual Time 7:04 AM CST 5:25 PM CST
Civil Twilight 6:38 AM CST 5:51 PM CST
Nautical Twilight 6:08 AM CST 6:20 PM CST
Astronomical Twilight 5:39 AM CST 6:49 PM CST
Moon 4:44 AM CST (1/9) 3:27 PM CST (1/9)
Length of Visible Light 11h 12m
Length of Day
10h 20m
Waning Crescent, 6% of the Moon is Illuminated
Jan 9
Waning Crescent
Jan 11
New
Jan 18
First Quarter
Jan 26
Full
Feb 3
Last Quarter

Hourly Weather History & Observations

Time (CST) Temp. Dew Point Humidity Pressure Visibility Wind Dir Wind Speed Gust Speed Precip Events Conditions
12:53 AM 63.0 °F 60.1 °F 90% 30.04 in 10.0 mi East 17.3 mph - 0.01 in Rain Light Rain
1:53 AM 63.0 °F 60.1 °F 90% 30.05 in 10.0 mi East 9.2 mph - 0.00 in Rain Light Rain
2:53 AM 62.1 °F 60.1 °F 93% 30.05 in 10.0 mi East 9.2 mph - 0.04 in Rain Light Rain
3:06 AM 62.6 °F 60.8 °F 94% 30.05 in 10.0 mi ESE 10.4 mph - 0.00 in Rain Light Rain
3:33 AM 62.6 °F 60.8 °F 94% 30.05 in 10.0 mi East 6.9 mph - 0.01 in Rain Light Rain
3:53 AM 63.0 °F 60.1 °F 90% 30.05 in 10.0 mi East 8.1 mph - 0.01 in Rain Light Rain
4:01 AM 62.6 °F 60.8 °F 94% 30.05 in 10.0 mi East 4.6 mph - 0.01 in Rain Light Rain
4:53 AM 63.0 °F 61.0 °F 93% 30.06 in 7.0 mi East 8.1 mph - 0.10 in Rain Rain
5:53 AM 64.9 °F 62.1 °F 90% 30.06 in 10.0 mi East 9.2 mph - 0.06 in Rain Light Rain
6:49 AM 66.2 °F 62.6 °F 88% 30.08 in 10.0 mi ESE 12.7 mph - 0.04 in   Overcast
6:53 AM 66.0 °F 63.0 °F 90% 30.09 in 10.0 mi ESE 9.2 mph - 0.04 in   Overcast
7:19 AM 66.2 °F 62.6 °F 88% 30.08 in 10.0 mi ESE 8.1 mph - N/A   Scattered Clouds
7:53 AM 66.0 °F 63.0 °F 90% 30.10 in 10.0 mi East 9.2 mph - N/A   Partly Cloudy
8:11 AM 68.0 °F 62.6 °F 83% 30.11 in 10.0 mi East 6.9 mph - N/A   Mostly Cloudy
8:53 AM 66.0 °F 63.0 °F 90% 30.13 in 10.0 mi East 8.1 mph - N/A   Overcast
9:42 AM 66.2 °F 64.4 °F 94% 30.14 in 6.0 mi East 8.1 mph - 0.01 in Rain Light Rain
9:50 AM 66.2 °F 64.4 °F 94% 30.14 in 10.0 mi East 8.1 mph - 0.01 in   Overcast
9:53 AM 66.9 °F 64.0 °F 90% 30.14 in 10.0 mi East 8.1 mph - 0.01 in   Overcast
10:10 AM 66.2 °F 64.4 °F 94% 30.14 in 10.0 mi East 8.1 mph - N/A   Overcast
10:20 AM 66.2 °F 64.4 °F 94% 30.14 in 10.0 mi East 6.9 mph - N/A   Overcast
10:53 AM 66.9 °F 64.9 °F 93% 30.12 in 7.0 mi East 10.4 mph - N/A   Overcast
11:34 AM 68.0 °F 64.4 °F 88% 30.11 in 5.0 mi East 9.2 mph - N/A   Overcast
12:15 PM 66.2 °F 64.4 °F 94% 30.08 in 2.5 mi ENE 9.2 mph - 0.00 in   Overcast
12:36 PM 68.0 °F 64.4 °F 88% 30.09 in 3.0 mi ENE 8.1 mph - 0.00 in   Overcast
12:53 PM 66.9 °F 64.9 °F 93% 30.09 in 3.0 mi ENE 8.1 mph - 0.00 in   Overcast
1:05 PM 66.2 °F 64.4 °F 94% 30.08 in 1.0 mi ENE 8.1 mph - N/A   Overcast
1:34 PM 66.2 °F 64.4 °F 94% 30.04 in 0.5 mi East 12.7 mph - 0.00 in Rain Light Rain
1:53 PM 66.9 °F 64.0 °F 90% 30.04 in 1.0 mi East 12.7 mph - 0.00 in   Overcast
2:14 PM 66.2 °F 64.4 °F 94% 30.04 in 2.0 mi East 12.7 mph - N/A   Overcast
2:33 PM 68.0 °F 64.4 °F 88% 30.04 in 1.8 mi East 16.1 mph 21.9 mph N/A   Overcast
2:53 PM 68.0 °F 64.9 °F 90% 30.03 in 2.5 mi East 16.1 mph - N/A   Overcast
3:53 PM 68.0 °F 64.9 °F 90% 30.04 in 2.5 mi East 13.8 mph - 0.00 in   Overcast
4:37 PM 68.0 °F 66.2 °F 94% 30.04 in 3.0 mi East 12.7 mph - N/A   Overcast
4:53 PM 69.1 °F 66.0 °F 90% 30.06 in 3.0 mi ESE 11.5 mph - N/A   Overcast
5:18 PM 69.8 °F 66.2 °F 88% 30.07 in 2.0 mi ESE 12.7 mph - N/A   Overcast
5:53 PM 69.1 °F 66.0 °F 90% 30.09 in 2.0 mi ESE 10.4 mph - N/A   Overcast
6:03 PM 69.8 °F 66.2 °F 88% 30.09 in 6.0 mi ESE 10.4 mph - N/A   Overcast
6:33 PM 69.8 °F 66.2 °F 88% 30.09 in 6.0 mi East 6.9 mph - 0.00 in   Overcast
6:53 PM 69.1 °F 66.9 °F 93% 30.09 in 6.0 mi East 6.9 mph - 0.00 in Rain Light Rain
7:53 PM 70.0 °F 66.9 °F 90% 30.09 in 5.0 mi East 11.5 mph - 0.02 in Rain Light Rain
8:15 PM 69.8 °F 66.2 °F 88% 30.09 in 5.0 mi ESE 13.8 mph - 0.01 in Rain Light Rain
8:53 PM 71.1 °F 68.0 °F 90% 30.09 in 5.0 mi ESE 12.7 mph - 0.04 in Rain Light Rain
9:05 PM 71.6 °F 68.0 °F 88% 30.09 in 5.0 mi ESE 12.7 mph - 0.01 in Rain Light Rain
9:14 PM 71.6 °F 68.0 °F 88% 30.09 in 6.0 mi ESE 10.4 mph - 0.01 in Rain Light Rain
9:41 PM 71.6 °F 68.0 °F 88% 30.10 in 6.0 mi ESE 12.7 mph - 0.04 in Rain Light Rain
9:53 PM 71.1 °F 68.0 °F 90% 30.09 in 6.0 mi ESE 13.8 mph - 0.04 in Rain Light Rain
10:38 PM 71.6 °F 68.0 °F 88% 30.10 in 5.0 mi ESE 11.5 mph - 0.01 in Rain , Thunderstorm Light Rain
10:53 PM 71.1 °F 68.0 °F 90% 30.09 in 4.0 mi ESE 11.5 mph - 0.04 in Rain , Thunderstorm Heavy Rain
11:53 PM 73.0 °F 70.0 °F 90% 30.09 in 6.0 mi SE 19.6 mph 25.3 mph 0.13 in Rain , Thunderstorm Light Rain